loading
|

THOR BURNER 2 R/B, 2877

Orbit data source: Space-Track

THOR BURNER 2 R/B, 2877 is space debris originally from a launch on Thu, 29 Jun 1967 UTC launched from the Air Force Western Test Range (AFWTR). Debris objects in space refer to the collection of defunct objects orbiting the Earth. Examples of debris include non-operational satellites, rocket bodies, and fragments generated from explosions, collisions, or faulty payload assembly.

Loading next visibility...
Next conjunction unknown
Loading greatness...
THOR BURNER 2 R/B details
Identifier
2877, 1967-065C
Orbit
Active
Last TLE update13 hours ago
Origin
Flag of USUSAF SSD (US)
ManufacturerBOKT/THKE
MissionSpacecraft
Bus & MotorSTAR 13, STAR 13
Mass58 kg wet, 25 kg dry
Launch date (UTC)
1967-06-29 (57 years ago)
Launch vehicleUnknown
Launch site
Air Force Western Test Range (AFWTR)
Object type
Payload
Rocket body
Debris
Shape & HBRSphere + 1 Nozzle, 0.7 m
Radar Cross Section0.385 m², Medium (>0.1 m² and < 1m²)

Expand to show TLE details & history

TLE from 13 hours ago
0 THOR BURNER 2 R/B
1 02877U 67065C   24285.46632813  .00000000  00000-0 -70187-3 0  9999
2 02877  90.0173 313.7203 0067773 318.6025  40.9689  8.36608549749656
Epoch: 2024-10-11T11:11Z
Definitive object data (Epoch: 2024-10-11T11:11:30.75Z)
Latitude
Longitude125.30606°
Altitude3,821.673 km
Speed6.268 km/s
True Right ascension20h 54m 52s
True Declination0° 00' 00"
Sunlit
Object was in daylight at TLE epoch
Predictive object data (real-time)
Latitude-25.42166°
Longitude-54.70182°
Altitude3,907.215 km
Speed6.217 km/s
Apparent Right ascension08h 09m 46s
Apparent Declination-31° 47' 34"
Sunlit
Object is in daylight
Predictive observer data (real-time)
Local Sidereal Time18:42:45
Azimuth288.017° WNW
Elevation-70.654°
Doppler factor1
Orbital elements
Apogee3,939.089 km
Perigee3,800.185 km
Semi-major axis10,247.774 km
Eccentricity0.0067773
Inclination90.0173°
RAAN313.7203°
Arg. of periapsis318.6025°
True anomaly41.48136°
Mean anomaly40.9689°
Eccentric anomaly41.2248°
Mean motion2.09218 °/min
BSTAR-0.00070187
Period172.07 mins
No data available
No data available

THOR BURNER 2 R/B Visibility forecast

Observer location: 39.9160978°, -105.1181434

Span
Click to sort rows by Start time (UTC) header in descending order
Start Az.
Max El. time (UTC)
Max El. Az.
Max El.
End time (UTC)
End Az.
38 mins2024-10-12 01:32:56.215Z157.548° S2024-10-12 01:51:56.215Z77.079° E43.319°2024-10-12 02:10:56.215Z1.182° NNE
32 mins2024-10-12 04:29:56.215Z231.131° WSW2024-10-12 04:44:56.215Z287.888° WNW28.85°2024-10-12 05:01:56.215Z349.162° N
23 mins2024-10-12 11:00:56.215Z22.84° NE2024-10-12 11:11:56.215Z59.2° ENE17.462°2024-10-12 11:23:56.215Z98.179° ESE
39 mins2024-10-12 13:48:56.215Z2.707° NNE2024-10-12 14:08:56.215Z106.435° ESE44.512°2024-10-12 14:27:56.215Z179.694° S
29 mins2024-10-12 16:41:56.215Z350.121° N2024-10-12 16:55:56.215Z302.334° NW26.637°2024-10-12 17:10:56.215Z250.419° W